This is the latest recevied weather packets stored in our database for station/object JO1YDG-13. If no packets are shown the sender has not sent any weather packets the latest 10 day(s).
| Time | Temp. | Humidity | Pressure | Rain* | Wind** | Luminosity | Snow |
|---|---|---|---|---|---|---|---|
| 1777260460 | 21.11° C | 61% | 976.4 hPa | 0 mm | - | - | - |
| 1777260159 | 20.56° C | 62% | 976.4 hPa | 0 mm | - | - | - |
| 1777259859 | 20.56° C | 61% | 976.4 hPa | 0 mm | - | - | - |
| 1777259560 | 20.56° C | 62% | 976.5 hPa | 0 mm | - | - | - |
| 1777259260 | 20.56° C | 60% | 976.5 hPa | 0 mm | - | - | - |
| 1777258959 | 20.56° C | 61% | 976.8 hPa | 0 mm | - | - | - |
| 1777258659 | 21.11° C | 62% | 976.8 hPa | 0 mm | - | - | - |
| 1777258360 | 20.56° C | 62% | 976.8 hPa | 0 mm | - | - | - |
| 1777258059 | 20° C | 61% | 976.9 hPa | 0 mm | - | - | - |
| 1777257759 | 20° C | 63% | 976.9 hPa | 0 mm | - | - | - |
| 1777257459 | 20° C | 64% | 977.1 hPa | 0 mm | - | - | - |
| 1777257159 | 20.56° C | 61% | 977.1 hPa | 0 mm | - | - | - |
| 1777256861 | 20.56° C | 61% | 977.1 hPa | 0 mm | - | - | - |
| 1777256560 | 20° C | 62% | 977.2 hPa | 0 mm | - | - | - |
| 1777256260 | 20° C | 62% | 977.2 hPa | 0 mm | - | - | - |
| 1777255960 | 19.44° C | 63% | 977.3 hPa | 0 mm | - | - | - |
| 1777255660 | 20.56° C | 61% | 977.3 hPa | 0 mm | - | - | - |
| 1777255360 | 20° C | 62% | 977.5 hPa | 0 mm | - | - | - |
| 1777255059 | 19.44° C | 62% | 977.5 hPa | 0 mm | - | - | - |
| 1777254759 | 19.44° C | 67% | 977.5 hPa | 0 mm | - | - | - |
| 1777254459 | 19.44° C | 68% | 977.5 hPa | 0 mm | - | - | - |
| 1777254161 | 18.89° C | 66% | 977.5 hPa | 0 mm | - | - | - |
| 1777253860 | 18.89° C | 66% | 977.7 hPa | 0 mm | - | - | - |
| 1777253560 | 19.44° C | 67% | 977.7 hPa | 0 mm | - | - | - |
| 1777253260 | 18.33° C | 69% | 977.7 hPa | 0 mm | - | - | - |
* Rain latest hour (hover to see other rain measurements)
** Current wind speed in m/s (hover to see current wind gust speed)